This is the latest recevied weather packets stored in our database for station/object KI4HRG. If no packets are shown the sender has not sent any weather packets the latest 10 day(s).
| Time | Temp. | Humidity | Pressure | Rain* | Wind** | Luminosity | Snow |
|---|---|---|---|---|---|---|---|
| 1787409445 | 30° C | 76% | 1016.5 hPa | 0 mm | - | 563 W/m² | - |
| 1787409140 | 30.56° C | 75% | 1016.6 hPa | 0 mm | - | 533 W/m² | - |
| 1787408836 | 30° C | 77% | 1016.4 hPa | 0 mm | - | 508 W/m² | - |
| 1787408531 | 30° C | 78% | 1016.5 hPa | 0 mm | - | 507 W/m² | - |
| 1787408226 | 30° C | 78% | 1016.7 hPa | 0 mm | - | 517 W/m² | - |
| 1787407922 | 29.44° C | 79% | 1016.6 hPa | 0 mm | - | 470 W/m² | - |
| 1787407616 | 30° C | 78% | 1016.5 hPa | 0 mm | - | 481 W/m² | - |
| 1787407312 | 28.89° C | 81% | 1016.6 hPa | 0 mm | - | 391 W/m² | - |
| 1787407008 | 28.33° C | 83% | 1016.7 hPa | 0 mm | - | 348 W/m² | - |
| 1787406704 | 28.33° C | 83% | 1016.7 hPa | 0 mm | - | 294 W/m² | - |
| 1787406399 | 27.78° C | 84% | 1016.5 hPa | 0 mm | - | 316 W/m² | - |
| 1787406095 | 27.78° C | 84% | 1016.7 hPa | 0 mm | - | 299 W/m² | - |
| 1787405791 | 27.78° C | 86% | 1016.5 hPa | 0 mm | - | 131 W/m² | - |
| 1787405487 | 27.22° C | 88% | 1016.7 hPa | 0 mm | - | 276 W/m² | - |
| 1787405181 | 27.22° C | 87% | 1016.7 hPa | 0 mm | - | 239 W/m² | - |
| 1787404878 | 26.67° C | 88% | 1016.7 hPa | 0 mm | - | 208 W/m² | - |
| 1787404267 | 26.67° C | 89% | 1016.5 hPa | 0 mm | - | 177 W/m² | - |
| 1787403963 | 26.11° C | 90% | 1016.5 hPa | 0 mm | - | 127 W/m² | - |
| 1787403657 | 25.56° C | 93% | 1016.5 hPa | 0 mm | - | 127 W/m² | - |
| 1787403351 | 25° C | 94% | 1016.3 hPa | 0 mm | - | 102 W/m² | - |
| 1787403049 | 25° C | 95% | 1016.3 hPa | 0 mm | - | 87 W/m² | - |
| 1787402744 | 25° C | 95% | 1016.4 hPa | 0 mm | - | 124 W/m² | - |
| 1787402443 | 24.44° C | 96% | 1016.3 hPa | 0 mm | - | 100 W/m² | - |
| 1787402138 | 24.44° C | 97% | 1016.2 hPa | 0 mm | - | 87 W/m² | - |
| 1787401833 | 23.89° C | 99% | 1016.2 hPa | 0 mm | - | 84 W/m² | - |
* Rain latest hour (hover to see other rain measurements)
** Current wind speed in m/s (hover to see current wind gust speed)